Weather History for Martinsville, VA

Change the Weather History Date:

Thursday, March 21, 2013

  Actual Average (KGSO) Record (KGSO)
Temperature  
Mean Temperature 36 °F 51 °F  
Max Temperature 44 °F 63 °F 89 °F (1968)
Min Temperature 29 °F 40 °F 15 °F (1965)
Degree Days  
Heating Degree Days 28 14  
Month to date heating degree days 348  
Since 1 July heating degree days 3203  
Cooling Degree Days 0 0  
Month to date cooling degree days 0  
Year to date cooling degree days 0  
Moisture  
Dew Point 17 °F    
Average Humidity 47    
Maximum Humidity 65    
Minimum Humidity 33    
Precipitation  
Precipitation 0.00 in 0.12 in 1.71 in (1961)
Month to date precipitation 2.52  
Year to date precipitation 8.54  
Snow  
Snow 0.00 in 0.00 in 2.00 in (1914)
Month to date snowfall 0.7  
Since 1 July snowfall 7.4  
Snow Depth -    
Sea Level Pressure  
Sea Level Pressure 29.87 in    
Wind  
Wind Speed 10 mph (NNW)    
Max Wind Speed 18 mph    
Max Gust Speed 25 mph    
Visibility 10 miles    
Events      
T = Trace of Precipitation, MM = Missing Value Source: NWS Daily Summary

Daily Weather History Graph

Daily Weather History Graph

Search for Another Location

Airport:

Trip Planner

Search our weather history database for the weather conditions in past years. The results will help you decide how hot, cold, wet, or windy it might be!

Date:

Astronomy

Mar. 21, 2013 Rise Set
Actual Time 7:21 AM EDT 7:32 PM EDT
Civil Twilight 6:56 AM EDT 7:58 PM EDT
Nautical Twilight 6:25 AM EDT 8:28 PM EDT
Astronomical Twilight 5:55 AM EDT 8:59 PM EDT
Moon 2:08 PM EDT (3/21) 3:34 AM EDT (3/21)
Length of Visible Light 13h 02m
Length of Day
12h 11m
Waxing Gibbous, 68% of the Moon is Illuminated
Mar 21
Waxing Gibbous
Mar 27
Full
Apr 3
Last Quarter
Apr 10
New
Apr 18
First Quarter

Hourly Weather History & Observations

Time (EDT) Temp. Windchill Dew Point Humidity Pressure Visibility Wind Dir Wind Speed Gust Speed Precip Events Conditions
12:15 AM 42.4 °F 36.1 °F 21.2 °F 43% 29.80 in 10.0 mi NW 11.5 mph 16.1 mph N/A   Scattered Clouds
12:35 AM 44.1 °F 39.5 °F 22.5 °F 42% 29.80 in 10.0 mi NNW 8.1 mph - N/A   Scattered Clouds
12:55 AM 43.7 °F 37.7 °F 25.7 °F 49% 29.80 in 10.0 mi NW 11.5 mph - N/A   Scattered Clouds
1:15 AM 42.8 °F 36.6 °F 27.5 °F 55% 29.81 in 10.0 mi NNW 11.5 mph - N/A   Overcast
1:35 AM 41.7 °F 35.2 °F 29.1 °F 61% 29.80 in 10.0 mi NNW 11.5 mph 19.6 mph N/A   Overcast
2:15 AM 39.6 °F 34.0 °F 28.0 °F 63% 29.80 in 10.0 mi NW 8.1 mph - N/A   Overcast
2:35 AM 38.8 °F 34.6 °F 28.0 °F 65% 29.81 in 10.0 mi NNW 5.8 mph - N/A   Overcast
2:55 AM 39.9 °F 35.1 °F 27.5 °F 61% 29.80 in 10.0 mi NNW 6.9 mph - N/A   Overcast
3:15 AM 39.2 °F 31.6 °F 26.4 °F 60% 29.80 in 10.0 mi NW 12.7 mph - N/A   Overcast
3:35 AM 39.2 °F 32.5 °F 26.2 °F 60% 29.80 in 10.0 mi NNW 10.4 mph 19.6 mph N/A   Overcast
3:55 AM 37.6 °F 29.6 °F 25.3 °F 61% 29.80 in 10.0 mi NW 12.7 mph - N/A   Overcast
4:15 AM 36.0 °F 27.5 °F 22.8 °F 59% 29.81 in 10.0 mi NNW 12.7 mph - N/A   Scattered Clouds
4:35 AM 35.2 °F 28.8 °F 22.1 °F 59% 29.80 in 10.0 mi NW 8.1 mph - N/A   Clear
4:55 AM 34.2 °F 30.0 °F 21.6 °F 60% 29.80 in 10.0 mi NNW 4.6 mph - N/A   Clear
5:15 AM 33.8 °F 25.8 °F 21.2 °F 60% 29.81 in 10.0 mi NW 10.4 mph 16.1 mph N/A   Clear
5:35 AM 32.7 °F 24.5 °F 20.7 °F 61% 29.81 in 10.0 mi NNW 10.4 mph - N/A   Clear
5:55 AM 32.9 °F 25.3 °F 19.4 °F 58% 29.81 in 10.0 mi NW 9.2 mph - N/A   Clear
6:15 AM 32.9 °F 24.7 °F 18.1 °F 55% 29.82 in 10.0 mi NNW 10.4 mph - N/A   Clear
6:35 AM 33.1 °F 24.9 °F 15.3 °F 48% 29.83 in 10.0 mi NNW 10.4 mph 19.6 mph N/A   Clear
6:55 AM 32.7 °F 23.4 °F 14.9 °F 48% 29.83 in 10.0 mi NNW 12.7 mph 21.9 mph N/A   Scattered Clouds
7:15 AM 32.2 °F 23.8 °F 14.7 °F 49% 29.83 in 10.0 mi NNW 10.4 mph - N/A   Scattered Clouds
7:35 AM 31.3 °F 25.6 °F 15.4 °F 52% 29.83 in 10.0 mi NW 5.8 mph - N/A   Clear
7:55 AM 30.2 °F 24.3 °F 16.7 °F 57% 29.84 in 10.0 mi NW 5.8 mph - N/A   Clear
8:15 AM 32.0 °F 25.6 °F 16.7 °F 53% 29.85 in 10.0 mi NNW 6.9 mph - N/A   Scattered Clouds
8:35 AM 33.1 °F 26.1 °F 15.6 °F 49% 29.85 in 10.0 mi NNW 8.1 mph - N/A   Mostly Cloudy
8:55 AM 32.7 °F 23.9 °F 15.1 °F 48% 29.85 in 10.0 mi NW 11.5 mph - N/A   Overcast
9:15 AM 32.9 °F 24.7 °F 15.6 °F 49% 29.86 in 10.0 mi NW 10.4 mph - N/A   Overcast
9:35 AM 34.7 °F 26.4 °F 18.1 °F 51% 29.86 in 10.0 mi NW 11.5 mph 17.3 mph N/A   Overcast
9:55 AM 34.2 °F 26.2 °F 18.5 °F 53% 29.87 in 10.0 mi NW 10.4 mph 16.1 mph N/A   Overcast
10:15 AM 33.8 °F 25.8 °F 17.1 °F 50% 29.87 in 10.0 mi NNW 10.4 mph 17.3 mph N/A   Mostly Cloudy
10:35 AM 35.6 °F 25.2 °F 16.3 °F 46% 29.87 in 10.0 mi NNW 18.4 mph 21.9 mph N/A   Scattered Clouds
10:55 AM 37.0 °F 28.5 °F 15.1 °F 41% 29.86 in 10.0 mi NNW 13.8 mph 19.6 mph N/A   Clear
11:15 AM 36.3 °F 28.9 °F 17.2 °F 46% 29.87 in 10.0 mi WNW 10.4 mph 20.7 mph N/A   Mostly Cloudy
11:35 AM 34.2 °F 26.2 °F 14.9 °F 45% 29.87 in 10.0 mi NNW 10.4 mph 15.0 mph N/A   Overcast
11:55 AM 37.2 °F 29.6 °F 16.3 °F 43% 29.86 in 10.0 mi NNW 11.5 mph 16.1 mph N/A   Overcast
12:15 PM 34.7 °F 25.9 °F 16.2 °F 47% 29.87 in 10.0 mi NNW 12.7 mph 19.6 mph N/A   Overcast
12:35 PM 37.0 °F 32.4 °F 16.2 °F 43% 29.86 in 10.0 mi NNW 5.8 mph 19.6 mph N/A   Overcast
12:55 PM 38.8 °F 31.2 °F 15.6 °F 39% 29.87 in 10.0 mi NW 12.7 mph 23.0 mph N/A   Overcast
1:15 PM 39.0 °F 31.4 °F 15.4 °F 38% 29.86 in 10.0 mi NW 12.7 mph 24.2 mph N/A   Overcast
1:35 PM 37.4 °F 30.3 °F 14.5 °F 39% 29.86 in 10.0 mi North 10.4 mph 21.9 mph N/A   Overcast
1:55 PM 38.7 °F 31.8 °F 15.1 °F 38% 29.86 in 10.0 mi NNW 10.4 mph - N/A   Overcast
2:15 PM 39.0 °F 31.8 °F 13.5 °F 35% 29.85 in 10.0 mi NW 11.5 mph 23.0 mph N/A   Overcast
2:35 PM 38.3 °F 30.1 °F 12.6 °F 35% 29.84 in 10.0 mi NNW 13.8 mph 25.3 mph N/A   Overcast
2:55 PM 38.1 °F 32.3 °F 11.5 °F 33% 29.84 in 10.0 mi NW 8.1 mph 18.4 mph N/A   Overcast
3:15 PM 38.7 °F 32.4 °F 12.0 °F 34% 29.84 in 10.0 mi NW 9.2 mph 24.2 mph N/A   Overcast
3:35 PM 38.3 °F 30.9 °F 11.8 °F 34% 29.85 in 10.0 mi NNW 11.5 mph 19.6 mph N/A   Overcast
3:55 PM 38.3 °F 30.9 °F 12.6 °F 35% 29.85 in 10.0 mi NW 11.5 mph - N/A   Overcast
4:15 PM 38.7 °F 30.1 °F 12.6 °F 34% 29.86 in 10.0 mi NNW 15.0 mph 21.9 mph N/A   Overcast
4:35 PM 38.3 °F 29.3 °F 12.6 °F 35% 29.87 in 10.0 mi NW 16.1 mph 19.6 mph N/A   Overcast
4:55 PM 37.8 °F 29.4 °F 12.2 °F 35% 29.88 in 10.0 mi NNW 13.8 mph 20.7 mph N/A   Overcast
5:15 PM 39.2 °F 31.2 °F 12.0 °F 33% 29.88 in 10.0 mi NW 13.8 mph 21.9 mph N/A   Overcast
5:35 PM 38.7 °F 31.8 °F 12.2 °F 34% 29.89 in 10.0 mi NW 10.4 mph 23.0 mph N/A   Overcast
5:55 PM 37.8 °F 29.4 °F 12.4 °F 35% 29.89 in 10.0 mi North 13.8 mph 18.4 mph N/A   Overcast
6:15 PM 36.0 °F 28.0 °F 12.0 °F 37% 29.90 in 10.0 mi NNW 11.5 mph 19.6 mph N/A   Overcast
6:35 PM 35.6 °F 25.5 °F 11.7 °F 37% 29.91 in 10.0 mi NNW 17.3 mph 20.7 mph N/A   Overcast
6:55 PM 35.2 °F 27.1 °F 11.3 °F 37% 29.91 in 10.0 mi NNW 11.5 mph 23.0 mph N/A   Overcast
7:15 PM 34.0 °F 25.0 °F 11.7 °F 40% 29.91 in 10.0 mi NNW 12.7 mph 17.3 mph N/A   Mostly Cloudy
7:35 PM 32.9 °F 24.1 °F 13.1 °F 44% 29.93 in 10.0 mi NNW 11.5 mph - N/A   Scattered Clouds
7:55 PM 32.2 °F 23.2 °F 12.6 °F 44% 29.93 in 10.0 mi NNW 11.5 mph - N/A   Clear
8:15 PM 32.0 °F 21.2 °F 12.4 °F 44% 29.95 in 10.0 mi NNW 16.1 mph 21.9 mph N/A   Clear
8:35 PM 32.0 °F 23.0 °F 12.7 °F 45% 29.95 in 10.0 mi NNW 11.5 mph - N/A   Clear
8:55 PM 31.3 °F 26.6 °F 13.1 °F 47% 29.96 in 10.0 mi NNW 4.6 mph - N/A   Scattered Clouds
9:15 PM 30.6 °F 25.8 °F 13.1 °F 48% 29.96 in 10.0 mi NNW 4.6 mph - N/A   Scattered Clouds
9:35 PM 30.9 °F 22.8 °F 13.6 °F 49% 29.97 in 10.0 mi NNW 9.2 mph - N/A   Clear
9:55 PM 29.7 °F 24.7 °F 13.5 °F 51% 29.98 in 10.0 mi NW 4.6 mph - N/A   Clear
10:15 PM 29.7 °F 21.3 °F 13.5 °F 51% 29.99 in 10.0 mi NW 9.2 mph - N/A   Clear
10:35 PM 30.6 °F 21.8 °F 13.1 °F 48% 29.99 in 10.0 mi NW 10.4 mph - N/A   Clear
10:55 PM 30.0 °F 23.2 °F 13.3 °F 50% 29.99 in 10.0 mi NW 6.9 mph - N/A   Clear
11:15 PM 29.5 °F 21.8 °F 13.3 °F 51% 30.00 in 10.0 mi NNW 8.1 mph - N/A   Clear
11:35 PM 29.7 °F 19.6 °F 13.8 °F 52% 30.00 in 10.0 mi NNW 12.7 mph - N/A   Clear
11:55 PM 29.7 °F 20.1 °F 14.5 °F 53% 30.00 in 10.0 mi NW 11.5 mph 19.6 mph N/A   Clear